Tracking 19146 objects as of 24-Apr-2018
HD Live streaming from Space Station
objects crossing your sky now

FENGYUN 1C DEB

Track FENGYUN 1C DEB now!
10-day predictions


NORAD ID: 31958
Int'l Code: 1999-025CNK
Perigee: 554.4 km
Apogee: 608.5 km
Inclination: 99.0 °
Period: 96.2 minutes
Semi major axis: 6952 km
RCS: 0.0081 m2 (small)
Launch date: May 10, 1999
Source: People's Republic of China (PRC)
Launch site: Taiyaun Space Center, China (TSC)

Note: This is SATELLITE DEBRIS
aabbcc
Your satellite tracking list
Your tracking list is empty




NASA's NSSDC Master Catalog

Two Line Element Set (TLE):
1 31958U 99025CNK 18108.17319477  .00007564  00000-0  64350-3 0  9991
2 31958  98.9512  89.7857 0038858 133.8529 226.5911 14.97595950574094
Source of the keplerian elements: AFSPC